STARLINK-34187

Satellite information

Favourite Embed

Satellite Type and Status

PAYLOADIN ORBIT

Key statistics

Satellite STARLINK-34187 at a glance.

Uptime

214

Days in orbit

Revolutions

≈ 15.3

Per day

Orbit

LEO

Low Earth Orbit

Inclination

43.0

Latest

Satellite identification and parameters

Extended collection of information and parameters for STARLINK-34187.

Object identification

Identified? True

Debris? False

Object name: STARLINK-34187

International designator: 2025-099E

Object number (NORAD): 63956

Object ID (CCSDS): 63956

Country: UNITED STATES OF AMERICA (US)

Current information (Y/N): Y

RCS size: LARGE

Orbital parameters

Period: 94.267 minutes

Inclination: 43.0007 deg

SMA: 6861.194 km

Apoapsis: 484.479 km

Periapsis: 481.639 km

RAAN: 310.1784 deg

Eccentricy: 0.00020697

Argument of periapsis: 270.3496 deg

Mean anomaly: 89.7118 deg

Mean motion: 15.27577364 rev/day

Mean motion (dot): 0.00044088 rev/day2

B* drag term: 0.0016021904 1/REarth

Two-line elements (TLE)

Creation date: Dec. 12, 2025, 10:14 a.m.

Reference frame: TEME

Reference center: EARTH

Epoch: Dec. 12, 2025, 6:28 a.m. UTC

TLE line 0: 0 STARLINK-34187

TLE line 1: 1 63956U 25099E 25346.26986441 .00044088 00000-0 16022-2 0 9991

TLE line 2: 2 63956 43.0007 310.1784 0002070 270.3496 89.7118 15.27577364 33961

Live tracking on map

Real-time ground track for satellite STARLINK-34187.

In-orbit conjunctions

There are no conjunctions computed for STARLINK-34187, at the moment. Check back to stay up to date, as we update our databases every day.

Go to all conjunctions

Associated space launch

A batch of 28 satellites for the Starlink mega-constellation - SpaceX's project for space-based Internet communication system.

STARLINK-34187 was lifted into orbit during the mission ‘Falcon 9 Block 5 | Starlink Group 6-83’, on board a Falcon 9 space rocket.

The launch took place on May 13, 2025, 5:02 a.m. from Launch Complex 39A.

For more information about the launch, click the button.

Launch to space Falcon 9 Block 5 | Starlink Group 6-83
Falcon 9 Block 5 | Starlink Group 6-83

Agency: SpaceX

Status: Launch Successful

Launch date: May 13, 2025, 5:02 a.m. UTC

Rocket: Falcon 9

Launch pad: Launch Complex 39A

Location: Kennedy Space Center, FL, USA

...

Latest news about this satellite

News about space launch
Rocket Report: How is your payload fairing? Poland launches test rocket.

No thunder down under.

News about space launch
Launch Roundup: Orbital launches from five countries planned

On the heels of a busy April, activity is ramping up for May with launches… The post Launch Roundup: Orbital launches from five countries planned appeared first on NASASpaceFlight.com.

News about space launch
Live coverage: 28 Starlink satellites to launch on Falcon 9 booster making record breaking 28th flight

The Starlink 6-83 mission will also mark SpaceX’s 100th Falcon 9 launch from Launch Complex 39A. Liftoff is targeted for 12:06 a.m. EDT (0406 UTC).


Newsletter sign-up

Weekly statistics, charts and insights to help you stay on top of the space industry.